(21726) Rezvanian = 1998 KP21 = 1999 RB134

Discovered at Socorro on 1999-09-09 by LINEAR.
(21726) Rezvanian = 1999 RB134

Jason Hamid Rezvanian (b. 1987) was awarded second place in the 2005 Intel International Science and Engineering Fair for his computer science team project. He attends the duPont Manual Magnet High School, Louisville, Kentucky, U.S.A. [Ref: Minor Planet Circ. 54706]

Orbit

Orbit type: Main Belt

Note: WebGL enabled browser required.

epoch2024-03-31.0
epoch JD2460400.5
perihelion date2022-10-24.40644
perihelion JD2459876.90644
argument of perihelion (°)228.63103
ascending node (°)243.78397
inclination (°)5.76701
eccentricity0.1077805
perihelion distance (AU)2.1142334
Tisserand w.r.t. Jupiter3.5
ΔV w.r.t. Earth (km/sec)9.2
semimajor axis (AU)2.3696337
mean anomaly (°)141.47390
mean daily motion (°/day)0.27019790
aphelion distance (AU)2.625
period (years)3.65
P-vector [x]-0.37790490
P-vector [y]0.87661959
P-vector [z]0.29786907
Q-vector [x]-0.92144526
Q-vector [y]-0.32478674
Q-vector [z]-0.21319522
absolute magnitude14.79
phase slope0.15
uncertainty0
referenceMPEC 2024-F28
observations used2355
oppositions18
arc length (days)10636
first opposition used1994
last opposition used2023
residual rms (arc-secs)0.62
perturbers coarse indicatorM-v
perturbers precise indicator003Ek
first observation date used1994-04-10.0
last observation date used2023-05-24.0
computer nameMPCLINUX
JD of orbit computation2456966.715905
perihelion JD uncertainty (days)8.9959E-05
argument of perihelion uncertainty (°)5.3045E-05
ascending node uncertainty (°)4.6352E-05
inclination uncertainty (°)4.2548E-06
eccentricity uncertainty 3.9540E-08
perihelion distance uncertainty (AU)9.5581E-08
Minimum Orbit Intersection Distances (in AU)
for orbit epoch: 2460400.5, reference: E2024-G77
Mercury1.79948
Venus1.40149
Earth1.13641
Mars0.52661
Jupiter2.48692
Saturn6.89684
Uranus16.2205
Neptune27.4531

Observations

2392 total observations over interval: 1994 04 10.15007 – 2023 05 24.170120
These data are available for download (format description).

Date (UT) J2000 RA J2000 Dec Magn Location Ref
1994 04 10.15007 11 36 52.21 -06 34 27.0 17.8 V 691 – Steward Observatory, Kitt Peak-Spacewatch MPS 80850
1994 04 10.15604 11 36 51.98 -06 34 25.2 17.2 V 691 – Steward Observatory, Kitt Peak-Spacewatch MPS 80850
1994 04 10.16179 11 36 51.77 -06 34 22.1 17.3 V 691 – Steward Observatory, Kitt Peak-Spacewatch MPS 80850
1996 11 07.94931 04 43 29.68 +22 53 37.0 16.5   095 – Crimea-Nauchnyi MPS 9933
1996 11 07.95833 04 43 29.38 +22 53 37.4 16.5   095 – Crimea-Nauchnyi MPS 9933
1998 05 17.25315 15 01 51.753 -19 22 56.11 16.68 J I02 – Cerro Tololo Observatory, La Serena--2MASS MPS 80850
1998 05 22.17810 14 57 22.50 -18 50 47.2 18.0   704 – Lincoln Laboratory ETS, New Mexico MPS 1487
1998 05 22.19776 14 57 21.34 -18 50 39.4 18.0   704 – Lincoln Laboratory ETS, New Mexico MPS 1487
1998 05 22.21730 14 57 20.38 -18 50 32.2 18.0   704 – Lincoln Laboratory ETS, New Mexico MPS 1487
1998 05 22.23694 14 57 19.30 -18 50 23.9 18.0   704 – Lincoln Laboratory ETS, New Mexico MPS 1487
1998 05 22.25657 14 57 18.07 -18 50 18.2 18.6   704 – Lincoln Laboratory ETS, New Mexico MPS 1487
1998 05 23.16886 14 56 30.72 -18 44 21.6 18.2   704 – Lincoln Laboratory ETS, New Mexico MPS 6724
1998 05 23.18858 14 56 29.77 -18 44 15.7 18.2   704 – Lincoln Laboratory ETS, New Mexico MPS 6724
1998 05 23.20839 14 56 28.64 -18 44 07.8   704 – Lincoln Laboratory ETS, New Mexico MPS 6724
1998 05 23.22814 14 56 27.60 -18 43 59.4   704 – Lincoln Laboratory ETS, New Mexico MPS 6724
1998 05 23.24812 14 56 26.47 -18 43 51.2 18.2   704 – Lincoln Laboratory ETS, New Mexico MPS 6724
1998 05 24.16570 14 55 39.74 -18 37 59.9 18.5   704 – Lincoln Laboratory ETS, New Mexico MPS 1487
1998 05 24.18540 14 55 38.65 -18 37 51.5 19.0   704 – Lincoln Laboratory ETS, New Mexico MPS 1487
1998 05 24.20501 14 55 37.71 -18 37 44.6 18.7   704 – Lincoln Laboratory ETS, New Mexico MPS 1487
1998 05 24.22458 14 55 36.64 -18 37 35.7 18.7   704 – Lincoln Laboratory ETS, New Mexico MPS 1487
1998 05 24.24437 14 55 35.55 -18 37 29.1 19.0   704 – Lincoln Laboratory ETS, New Mexico MPS 1487
1999 09 08.24193 22 18 28.34 -00 22 27.3 18.8 R 699 – Lowell Observatory-LONEOS MPS 6334
1999 09 08.27257 22 18 26.74 -00 22 38.7   699 – Lowell Observatory-LONEOS MPS 6334
1999 09 08.30323 22 18 25.06 -00 22 49.7   699 – Lowell Observatory-LONEOS MPS 6334
1999 09 09.27382 22 17 34.04 -00 28 50.5 18.5   704 – Lincoln Laboratory ETS, New Mexico MPS 6334
1999 09 09.28785 22 17 33.32 -00 28 54.8 19.1   704 – Lincoln Laboratory ETS, New Mexico MPS 6334
1999 09 09.30211 22 17 32.49 -00 29 00.6 19.0   704 – Lincoln Laboratory ETS, New Mexico MPS 6334
1999 09 09.31655 22 17 31.78 -00 29 06.2 18.9   704 – Lincoln Laboratory ETS, New Mexico MPS 6334
1999 09 09.33054 22 17 30.93 -00 29 10.8 18.9   704 – Lincoln Laboratory ETS, New Mexico MPS 6334
1999 09 14.19300 22 13 26.22 -00 59 40.8 18.6   704 – Lincoln Laboratory ETS, New Mexico MPS 6334
1999 09 14.20582 22 13 25.53 -00 59 46.3 19.4   704 – Lincoln Laboratory ETS, New Mexico MPS 6334
1999 09 14.21863 22 13 24.86 -00 59 50.7 19.5   704 – Lincoln Laboratory ETS, New Mexico MPS 6334
1999 09 14.23153 22 13 24.19 -00 59 56.0 18.3   704 – Lincoln Laboratory ETS, New Mexico MPS 6334
1999 09 14.24442 22 13 23.56 -01 00 00.6 18.2   704 – Lincoln Laboratory ETS, New Mexico MPS 6334
1999 10 02.10735 22 02 17.07 -02 46 56.2 17.8 R 703 – Catalina Sky Survey MPS 6830
1999 10 02.11964 22 02 16.86 -02 46 59.8 18.7 R 703 – Catalina Sky Survey MPS 6830
1999 10 02.13197 22 02 16.45 -02 47 04.1 18.9 R 703 – Catalina Sky Survey MPS 6830
1999 10 02.14425 22 02 16.06 -02 47 08.8 18.7 R 703 – Catalina Sky Survey MPS 6830
1999 10 02.22756 22 02 13.92 -02 47 35.0 18.3   704 – Lincoln Laboratory ETS, New Mexico MPS 6830
1999 10 02.24057 22 02 13.51 -02 47 38.8 19.2   704 – Lincoln Laboratory ETS, New Mexico MPS 6830
1999 10 02.25356 22 02 13.23 -02 47 43.1 18.9   704 – Lincoln Laboratory ETS, New Mexico MPS 6830
1999 10 02.26657 22 02 12.91 -02 47 47.7 19.1   704 – Lincoln Laboratory ETS, New Mexico MPS 6830
1999 10 02.27947 22 02 12.55 -02 47 50.8 19.1   704 – Lincoln Laboratory ETS, New Mexico MPS 6830
1999 10 08.10787 22 00 19.57 -03 17 05.0 18.9   704 – Lincoln Laboratory ETS, New Mexico MPS 11976
1999 10 08.12397 22 00 19.27 -03 17 09.5 19.1   704 – Lincoln Laboratory ETS, New Mexico MPS 11976
1999 10 08.14006 22 00 18.96 -03 17 13.9 18.9   704 – Lincoln Laboratory ETS, New Mexico MPS 11976
1999 10 08.15575 22 00 18.67 -03 17 16.3 19.8   704 – Lincoln Laboratory ETS, New Mexico MPS 11976
2000 11 25.44362 09 06 04.13 +10 56 59.0 18.1 R 699 – Lowell Observatory-LONEOS MPS 22274
2000 11 25.46886 09 06 05.12 +10 56 50.2   699 – Lowell Observatory-LONEOS MPS 22274
2000 11 25.49409 09 06 06.17 +10 56 38.6   699 – Lowell Observatory-LONEOS MPS 22274
2000 11 25.51938 09 06 07.20 +10 56 26.9   699 – Lowell Observatory-LONEOS MPS 22274
2000 12 22.40929 09 14 29.81 +08 09 50.5 17.6 R 699 – Lowell Observatory-LONEOS MPS 23657
2000 12 22.43290 09 14 29.58 +08 09 44.2   699 – Lowell Observatory-LONEOS MPS 23657
2000 12 22.45649 09 14 29.35 +08 09 38.0   699 – Lowell Observatory-LONEOS MPS 23657
2000 12 22.48269 09 14 29.06 +08 09 31.1   699 – Lowell Observatory-LONEOS MPS 23657
2000 12 28.38172 09 13 07.71 +07 46 26.4 18.3   704 – Lincoln Laboratory ETS, New Mexico MPS 23657
2000 12 28.39684 09 13 07.36 +07 46 22.7 18.6   704 – Lincoln Laboratory ETS, New Mexico MPS 23657
2000 12 28.42708 09 13 06.73 +07 46 16.1 18.4   704 – Lincoln Laboratory ETS, New Mexico MPS 23657
2000 12 28.44219 09 13 06.35 +07 46 12.5 17.7   704 – Lincoln Laboratory ETS, New Mexico MPS 23657
2001 01 04.38125 09 10 00.41 +07 27 11.5 17.5   704 – Lincoln Laboratory ETS, New Mexico MPS 23657
2001 01 04.39684 09 09 59.85 +07 27 09.6 17.9   704 – Lincoln Laboratory ETS, New Mexico MPS 23657
2001 01 04.41277 09 09 59.30 +07 27 07.9 17.5   704 – Lincoln Laboratory ETS, New Mexico MPS 23657
2001 01 04.42786 09 09 58.73 +07 27 05.4 17.9   704 – Lincoln Laboratory ETS, New Mexico MPS 23657
2001 01 04.44325 09 09 58.18 +07 27 03.6 17.8   704 – Lincoln Laboratory ETS, New Mexico MPS 23657
2001 01 18.43154 08 59 29.80 +07 17 02.3 16.8   608 – Haleakala-AMOS MPS 24958
2001 01 18.44221 08 59 29.18 +07 17 02.8 16.9   608 – Haleakala-AMOS MPS 24958
2001 01 18.45240 08 59 28.61 +07 17 03.0 17.1   608 – Haleakala-AMOS MPS 24958
2001 01 19.29336 08 58 42.39 +07 17 38.2 17.0 R 699 – Lowell Observatory-LONEOS MPS 24958
2001 01 19.31534 08 58 41.08 +07 17 39.1   699 – Lowell Observatory-LONEOS MPS 24958
2001 01 19.31639 08 58 40.96 +07 17 40.0 17.3   704 – Lincoln Laboratory ETS, New Mexico MPS 24958
2001 01 19.33247 08 58 40.03 +07 17 40.8 18.0   704 – Lincoln Laboratory ETS, New Mexico MPS 24958
2001 01 19.33733 08 58 39.82 +07 17 40.3   699 – Lowell Observatory-LONEOS MPS 24958
2001 01 19.34775 08 58 39.40 +07 17 41.7 19.8   704 – Lincoln Laboratory ETS, New Mexico MPS 24958
2001 01 19.35937 08 58 38.56 +07 17 41.3   699 – Lowell Observatory-LONEOS MPS 24958
2001 01 19.36332 08 58 38.19 +07 17 42.2 18.0   704 – Lincoln Laboratory ETS, New Mexico MPS 24958
2001 01 19.38008 08 58 37.24 +07 17 43.2 17.8   704 – Lincoln Laboratory ETS, New Mexico MPS 24958
2001 02 01.24395 08 45 53.55 +07 41 49.7 17.2   704 – Lincoln Laboratory ETS, New Mexico MPS 24958
2001 02 01.25402 08 45 52.93 +07 41 51.2 16.6 R 699 – Lowell Observatory-LONEOS MPS 24958
2001 02 01.25884 08 45 52.60 +07 41 52.5 18.5   704 – Lincoln Laboratory ETS, New Mexico MPS 24958
2001 02 01.27510 08 45 51.55 +07 41 55.7 19.4   704 – Lincoln Laboratory ETS, New Mexico MPS 24958
2001 02 01.30209 08 45 49.92 +07 41 59.7   699 – Lowell Observatory-LONEOS MPS 24958
2001 02 01.30507 08 45 49.67 +07 42 00.0 19.2   704 – Lincoln Laboratory ETS, New Mexico MPS 24958
2001 02 01.35108 08 45 46.87 +07 42 07.7   699 – Lowell Observatory-LONEOS MPS 24958
